Regional Weather Roundup
Issued by NWS State College, PA

Home | Current Version | Previous Version | Text Only | Print | Product List | Glossary On
Versions: 1 2 3 4 5 6 7 8 9 10 11 12 13 14 15 16 17 18 19 20 21 22 23 24 25 26 27 28 29 30 31 32 33 34 35 36 37 38 39 40 41 42 43 44 45 46 47 48 49 50
998
ASUS41 KCTP 201410
RWRCTP

REGIONAL WEATHER ROUNDUP
NATIONAL WEATHER SERVICE STATE COLLEGE PA
1000 AM EDT SUN MAY 20 2018

Note: "fair" indicates few or no clouds below 12,000 feet with no
significant weather and/or obstructions to visibility.

* = STATION THAT DOES NOT REPORT PRECIPITATION /E.G. RAIN...SNOW...ETC/
    THUNDER OR FOG.

PAZ002>004-007>009-013>016-020>023-029>032-201500-
WESTERN PENNSYLVANIA

CITY           SKY/WX    TMP DP  RH WIND       PRES   REMARKS
ERIE           CLOUDY    58  53  84 VRB5      30.08R
MEADVILLE      CLOUDY    59  59 100 W5        30.08R
FRANKLIN*      CLOUDY    61  58  90 VRB5      30.08S
NEW CASTLE     CLOUDY    62  62 100 NW6       30.09R FOG
BEAVER COUNTY  CLOUDY    66  63  88 NW5       30.07R
BUTLER*        CLOUDY    66  63  90 VRB6      30.07R
PITTSBURGH INT CLOUDY    69  63  81 W14       30.06S
PITTSBURGH     CLOUDY    69  64  84 NW8G20    30.06R
INDIANA*       PTSUNNY   66  66 100 NW8       30.09S
LATROBE        CLOUDY    68  68 100 W9        30.07R
WASHINGTON CO* PTSUNNY   71  65  81 W7        30.10R
$$

PAZ004>006-010>012-017>019-024>028-033>037-041-042-045-046-049>053-201500-
CENTRAL PENNSYLVANIA

CITY           SKY/WX    TMP DP  RH WIND       PRES   REMARKS
BRADFORD       CLOUDY    61  57  87 W7        30.05R
DUBOIS         CLOUDY    64  61  90 NW9       30.05R
CLEARFIELD     LGT RAIN  67  60  78 W10       30.04R
JOHNSTOWN      CLOUDY    66  62  87 W10G18    30.07R
ALTOONA        PTSUNNY   70  64  81 CALM      30.05S
STATE COLLEGE  DRIZZLE   64  63  94 SW6       30.02R
WILLIAMSPORT   PTSUNNY   65  60  84 CALM      29.98R
SELINSGROVE    CLOUDY    68  64  87 S6        30.00S
FT INDIANTOWN  FAIR      68  68 100 SW10      30.01R
CAPITAL CITY   CLOUDY    68  64  87 W6        30.02S
HARRISBURG     PTSUNNY   68  65  90 NW12      30.01S
YORK           FAIR      74  67  78 SW9       30.02S
$$

PAZ038>040-043-044-047-048-054-055-060>062-067>071-201500-
EASTERN PENNSYLVANIA

CITY           SKY/WX    TMP DP  RH WIND       PRES   REMARKS
SCRANTON       CLOUDY    64  63  96 SW12      29.97F
MOUNT POCONO   CLOUDY    63  63 100 W10       30.00S
ALLENTOWN      CLOUDY    72  66  81 W16       29.98S
QUAKERTOWN*    CLOUDY    72  70  94 SW10      29.99F
READING        FAIR      72  69  90 VRB3      29.98F
LANCASTER      PTSUNNY   75  70  84 W13       30.00F
COATESVILLE    PTSUNNY   72  68  88 VRB7      30.03S
POTTSTOWN      CLOUDY    73  68  84 W10G16    30.00F
BLUE BELL      CLOUDY    72  68  88 SW9G17    30.00F
DOYLESTOWN     PTSUNNY   75  68  78 SW12      29.97F
WILLOW GROVE   NOT AVBL
NORTH PHILA    PTSUNNY   77  69  76 SW12      30.00F
PHILADELPHIA   CLOUDY    73  69  87 W17       30.00S
$$




USA.gov is the U.S. government's official web portal to all federal, state and local government web resources and services.